Meteo Giornale » Osservazioni meteo Italia » Cagliari-Elmas

ore: 17:50 - Osservazioni Meteo Cagliari-Elmas
Lat. 39° 15' N Lon. 9° 4' E Alt. 4 metri s.l.m.

nuvoloso Europe/Rome

17 °C

Nuvoloso

Temp. 24 Ore

15 °C

19 °C

Sud-Est

20.3 Km/h

Dew point 14 °C

Umidità 82 %

Visibilità  9 Km

Il sole sorge alle ore 06:50

Il sole tramonta alle ore 19:58

Data e Ora Cielo e Fenomeni T °C DP °C Um. % Pres. hPa Vis. km Vento km/h
Oggi h: 17:50 nuvoloso Nuvoloso 17 14 82 1017 9 SE 20.3
Oggi h: 17:20 nuvoloso Nuvoloso 17 14 82 1017 9 SE 22.2
Oggi h: 16:50 nuvoloso Nuvoloso 18 14 77 1017 9 S/SE 18.5
Oggi h: 16:20 nuvoloso Nuvoloso 18 13 72 1017 8 S/SE 18.5
Oggi h: 15:50 nuvoloso Nuvoloso 18 13 72 1017 8 SE 22.2
Oggi h: 15:20 nuvoloso Nuvoloso 18 14 77 1017 8 SE 24
Oggi h: 14:50 nuvoloso Nuvoloso 19 14 72 1017 8 S/SE 18.5
Oggi h: 14:20 nuvoloso Nuvoloso 18 14 77 1018 8 S/SE 18.5
Oggi h: 13:50 molto_nuvoloso Molto Nuvoloso 19 13 68 1018 8 S/SE 20.3
Oggi h: 13:20 molto_nuvoloso Molto Nuvoloso 19 13 68 1018 8 S/SE 22.2
Oggi h: 12:50 molto_nuvoloso Molto Nuvoloso 18 13 72 1018 8 S/SE 18.5
Oggi h: 12:20 molto_nuvoloso Molto Nuvoloso 18 14 77 1018 8 S/SE 20.3
Oggi h: 11:50 molto_nuvoloso Molto Nuvoloso 18 14 77 1018 8 S/SE 22.2
Oggi h: 11:20 molto_nuvoloso Molto Nuvoloso 18 14 77 1018 8 S/SE 20.3
Oggi h: 10:50 molto_nuvoloso Molto Nuvoloso 17 14 82 1018 8 S/SE 20.3
Oggi h: 10:20 molto_nuvoloso Molto Nuvoloso 17 14 82 1018 8 S/SE 20.3
Oggi h: 09:50 molto_nuvoloso Molto Nuvoloso 16 14 87 1017 8 S/SE 20.3
Oggi h: 09:20 molto_nuvoloso Molto Nuvoloso 16 14 87 1017 8 S/SE 18.5
Oggi h: 08:20 molto_nuvoloso Molto Nuvoloso 15 14 93 1016 8 S/SE 18.5
Oggi h: 07:50 molto_nuvoloso Molto Nuvoloso 15 14 93 1016 10 S/SE 22.2
Oggi h: 06:50 molto_nuvoloso Molto Nuvoloso 15 14 93 1016 10 S/SE 16.7
Oggi h: 05:50 nuvoloso Nuvoloso 15 14 93 1015 10 E/SE 20.3
Oggi h: 05:20 molto_nuvoloso Molto Nuvoloso 15 14 93 1016 10 S/SE 22.2
Oggi h: 04:50 nuvoloso Nuvoloso 15 14 93 1016 10 SE 20.3
Oggi h: 04:20 nuvoloso Nuvoloso 15 14 93 1016 10 S/SE 22.2
Oggi h: 03:50 nuvoloso Nuvoloso 15 14 93 1016 10 S/SE 29.6
Oggi h: 03:20 coperto_pioggia Pioggia Debole 15 14 93 1016 10 S/SE 22.2
Oggi h: 02:50 coperto_pioggia Pioggia Debole 15 14 93 1016 10 SE 33.3
Oggi h: 02:20 molto_nuvoloso Molto Nuvoloso 15 13 87 1018 10 S/SE 25.9
Oggi h: 01:50 molto_nuvoloso Molto Nuvoloso 15 13 87 1018 10 SE 25.9
Oggi h: 01:20 molto_nuvoloso Molto Nuvoloso 15 13 87 1018 10 SE 24
Oggi h: 00:50 molto_nuvoloso Molto Nuvoloso 15 13 87 1018 10 S/SE 24
Oggi h: 00:20 molto_nuvoloso Molto Nuvoloso 16 13 82 1018 10 SE 24
Ieri h: 23:50 molto_nuvoloso Molto Nuvoloso 15 13 87 1018 10 S/SE 24
Ieri h: 23:20 molto_nuvoloso Molto Nuvoloso 15 13 87 1018 10 S/SE 25.9
Ieri h: 22:50 nuvoloso Nuvoloso 16 13 82 1019 10 S/SE 25.9
Ieri h: 22:20 nuvoloso Nuvoloso 15 13 87 1019 10 S/SE 24
Ieri h: 21:50 nuvoloso Nuvoloso 15 13 87 1018 10 S/SE 25.9
Ieri h: 21:20 nuvoloso Nuvoloso 16 13 82 1018 10 S/SE 25.9
Ieri h: 20:50 nuvoloso Nuvoloso 15 12 82 1018 10 SE 29.6
Ieri h: 20:20 poco_nuvoloso Poco Nuvoloso 15 12 82 1017 10 SE 31.5
Ieri h: 19:50 poco_nuvoloso Poco Nuvoloso 16 12 77 1017 10 SE 29.6
Ieri h: 19:20 poco_nuvoloso Poco Nuvoloso 16 12 77 1017 10 SE 31.5
Ieri h: 18:50 poco_nuvoloso Poco Nuvoloso 16 12 77 1017 10 SE 29.6